Weather Roundup
Issued by NWS Springfield, MO

Home | Current Version | Previous Version | Text Only | Print | Product List | Glossary On
Versions: 1 2 3 4 5 6 7 8 9 10 11 12 13 14 15 16 17 18 19 20 21 22 23 24 25 26 27 28 29 30 31 32 33 34 35 36 37 38 39 40 41 42 43 44 45 46 47 48 49 50
000
NZUS99 KSGF 231307
HRRSGF

HOURLY WEATHER
NATIONAL WEATHER SERVICE SPRINGFIELD MO
800 AM CDT THU OCT 23 2014

......SGF CWA......

CITY           SKY/WX    TMP DP  RH WIND       PRES   REMARKS
SPRINGFIELD    CLOUDY    53  43  68 S13       30.16R
JOPLIN         CLOUDY    58  52  80 S7        30.16R
WEST PLAINS    CLOUDY    41  39  93 CALM      30.21S
ROLLA          CLOUDY    46  41  82 S8        30.16S
OSAGE BEACH    CLOUDY    50  41  71 S7        30.17S
BRANSON        CLOUDY    50  45  81 SE6       30.18S

......SURROUNDING SGF CWA......

CITY           SKY/WX    TMP DP  RH WIND       PRES   REMARKS
CHANUTE        CLOUDY    59  58  96 S10       30.11S
PARSONS        CLOUDY    59  59 100 S7        30.14R
COFFEYVILLE    LGT RAIN  59  58  96 S6        30.13R
EMPORIA        CLOUDY    61  61 100 S9        30.09S FOG
GROVE OK       RAIN      59  54  82 CALM      30.17R
ROGERS AR      CLOUDY    54  48  80 SE6       30.18S
SILOAM SPRINGS CLOUDY    55  46  71 CALM      30.18R
HARRISON AR    CLOUDY    48  47  96 SE7       30.18F
NEAR YELLVILLE CLOUDY    45  39  81 CALM      30.21R

......KANSAS AND MISSOURI......

CITY           SKY/WX    TMP DP  RH WIND       PRES   REMARKS
KANSAS CTY INT CLOUDY    56  55  97 S6        30.07S FOG
DOWNTOWN KC    CLOUDY    58  56  93 E5        30.07S
COLUMBIA       CLOUDY    48  44  86 S8        30.15S
SEDALIA        CLOUDY    56  46  69 S12       30.14S
ST JOSEPH      FOG       53  53 100 CALM      30.06S VSB 1/4
ST LOUIS       MOCLDY    49  41  74 S3        30.21S
SPIRIT OF STL  MOCLDY    41  38  89 CALM      30.20S
KIRKSVILLE     CLOUDY    51  46  83 S7        30.11S
WICHITA        CLOUDY    62  58  86 S8        30.08R
TOPEKA         CLOUDY    62  60  93 S9        30.07F
OLATHE         LGT RAIN  58  58 100 S10       30.07F

......TENNESSEE......

CITY           SKY/WX    TMP DP  RH WIND       PRES   REMARKS
MEMPHIS        PTCLDY    47  42  83 CALM      30.21R
NASHVILLE      MOSUNNY   45  41  86 CALM      30.23S

......ARKANSAS.......

CITY           SKY/WX    TMP DP  RH WIND       PRES   REMARKS
FAYETTEVILLE   CLOUDY    52  50  93 E3        30.17S
FT SMITH       CLOUDY    54  48  80 E9        30.17S
LITTLE ROCK    CLOUDY    49  44  83 NE6       30.19F

......OKLAHOMA.......

CITY           SKY/WX    TMP DP  RH WIND       PRES   REMARKS
TULSA          LGT RAIN  60  58  92 SE7       30.13R
PONCA CITY     CLOUDY    63  58  83 S6        30.10R
MCALESTER      CLOUDY    59  53  80 S3        30.15S
OKLAHOMA CITY  CLOUDY    61  56  83 S6        30.12R

......IOWA............

CITY           SKY/WX    TMP DP  RH WIND       PRES   REMARKS
DES MOINES     LGT RAIN  54  51  90 S7        30.04S
QUAD CITIES    CLOUDY    43  38  82 SE5       30.14F

......ILLINOIS........

CITY           SKY/WX    TMP DP  RH WIND       PRES   REMARKS
QUINCY         CLOUDY    49  41  74 S10       30.15F
CHICAGO        MOCLDY    38  36  92 S6        30.21S WCI  33




USA.gov is the U.S. government's official web portal to all federal, state and local government web resources and services.